Location: Pedholt
(56.0260°N, 10.2097°E)
Time: 03:58:10
(UTC+00:00)

Transit 2A Rocket - Pass Details

Date: 31 July 2021
Orbit: 586 x 916 km, 66.7° (Epoch: 21 September)

Event Time Altitude Azimuth Distance (km) Brightness Sun altitude
Rises 14:34:07 0° 221° (SW) 2,884 8.8 38.2°
Reaches altitude 10° 14:36:17 10° 221° (SW) 2,015 8.3 38.0°
Maximum altitude 14:40:50 88° 132° (SE) 679 5.4 37.4°
Drops below altitude 10° 14:45:52 10° 45° (NE) 2,217 7.0 36.8°
Sets 14:48:21 0° 45° (NE) 3,199 7.8 36.5°
